Miscellaneous Local Product
Issued by NWS Hastings, NE

Home | Current Version | Previous Version | Text Only | Print | Product List | Glossary Off
Versions: 1 2 3 4 5 6 7 8 9 10 11 12 13 14 15 16 17 18 19 20 21 22 23 24 25 26 27 28 29 30 31 32 33 34 35 36 37 38 39 40 41 42 43 44 45 46 47 48 49 50

283
AXUS43 KGID 042002
MISGRI

GID CWA HOURLY WEATHER ROUNDUP
NATIONAL WEATHER SERVICE HASTINGS NE
300 PM CDT WED MAY 04 2016

NOTE: "FAIR" INDICATES FEW OR NO CLOUDS BELOW 12,000 FEET WITH NO
SIGNIFICANT WEATHER AND/OR OBSTRUCTIONS TO VISIBILITY.

...SOUTH CENTRAL NEBRASKA...

CITY           SKY/WX    TMP DP  RH WIND       PRES   REMARKS
GRAND ISLAND   SUNNY     69  31  24 N14       30.09F
HASTINGS       SUNNY     68  32  26 N12       30.09F
KEARNEY        SUNNY     70  34  26 N12G22    30.11F
ORD            SUNNY     69  33  26 N14G22    30.09F
YORK           SUNNY     66  34  30 N10G24    30.08F
AURORA         SUNNY     68  32  25 N7G20     30.08F
LEXINGTON      SUNNY     71  38  30 N9        30.11F
HOLDREGE       SUNNY     69  34  27 N12G17    30.11F
HEBRON         SUNNY     68  32  26 N12       30.07F

...NEBRASKA PANHANDLE...

CITY           SKY/WX    TMP DP  RH WIND       PRES   REMARKS
CHADRON        SUNNY     75  40  28 E5        30.11F
ALLIANCE       SUNNY     72  39  30 VRB5      30.14F
SCOTTSBLUFF    SUNNY     74  38  27 CALM      30.14F
SIDNEY         SUNNY     72  38  29 E6        30.17F

...WESTERN AND NORTH CENTRAL NEBRASKA...

CITY           SKY/WX    TMP DP  RH WIND       PRES   REMARKS
VALENTINE      SUNNY     73  34  23 N8G16     30.11F
AINSWORTH      SUNNY     69  34  27 N3        30.12S
ONEILL         SUNNY     66  31  26 N15G22    30.11S
BROKEN BOW     SUNNY     71  44  37 N12G21    30.11S
IMPERIAL       SUNNY     75  37  25 NE8       30.13F
NORTH PLATTE   SUNNY     75  38  26 NE8       30.11F
MCCOOK         SUNNY     75  40  28 CALM      30.10F

...EASTERN NEBRASKA...

CITY           SKY/WX    TMP DP  RH WIND       PRES   REMARKS
NORFOLK        SUNNY     66  32  28 NW13G18   30.06F
SO SIOUX CITY  SUNNY     67  43  41 NW17G25   30.04F
TEKAMAH        SUNNY     67  40  37 N16       30.04F
COLUMBUS       SUNNY     66  36  32 NW14      30.08F
ALBION         SUNNY     66  33  29 N8        30.08F
OMAHA EPPLEY   MOSUNNY   68  39  34 N18G26    30.02F
MILLARD        SUNNY     66  38  35 N9G20     30.04S
LINCOLN        SUNNY     71  36  27 N18       30.06F
NEBRASKA CITY  SUNNY     67  33  27 N16G23    30.04R
BEATRICE       SUNNY     67  38  33 N15       30.06S
FALLS CITY     SUNNY     69  40  34 N14G21    30.01F

...NORTHERN KANSAS...

CITY           SKY/WX    TMP DP  RH WIND       PRES   REMARKS
GOODLAND       SUNNY     75  40  28 N12       30.15F
HILL CITY      SUNNY     76  40  27 NE10      30.12S
NORTON         CLEAR     73  30  20 N13       30.10F
PHILLIPSBURG   SUNNY     72  37  28 N5        30.10F
SMITH CENTER   SUNNY     68  39  34 N14G22    30.10F
BELOIT         SUNNY     70  30  23 N13G23    30.07F
HAYS           SUNNY     72  41  33 N13G18    30.11S
RUSSELL        SUNNY     73  41  31 N10       30.08F
CONCORDIA      SUNNY     71  36  27 N17G24    30.07F
SALINA         SUNNY     74  37  26 N12G24    30.06F
TOPEKA         SUNNY     70  39  32 N17G26    30.01F



USA.gov is the U.S. government's official web portal to all federal, state and local government web resources and services.